| time (UTC) | temp F | wind direction | speed MPH | gust MPH | rain 1hr in | rain 24hr in | rain mn in | humidity % | barometer mb |
| 20260508121131 | 52 | 168 | 2.0 | 4.0 | 0.00 | 0.00 | 0.00 | 59 | 1015.2 |
| 20260508120628 | 52 | 191 | 1.0 | 2.0 | 0.00 | 0.00 | 0.00 | 60 | 1015.0 |
| 20260508120127 | 51 | 174 | 0.0 | 0.0 | 0.00 | 0.00 | 0.00 | 61 | 1015.2 |
| 20260508115624 | 51 | 168 | 2.0 | 3.0 | 0.00 | 0.00 | 0.00 | 62 | 1014.8 |
| 20260508115120 | 50 | 178 | 2.0 | 3.0 | 0.00 | 0.00 | 0.00 | 62 | 1014.9 |
| 20260508114618 | 50 | 204 | 2.0 | 3.0 | 0.00 | 0.00 | 0.00 | 62 | 1014.9 |
| 20260508114113 | 50 | 190 | 2.0 | 3.0 | 0.00 | 0.00 | 0.00 | 62 | 1015.0 |
| 20260508113611 | 51 | 161 | 0.0 | 1.0 | 0.00 | 0.00 | 0.00 | 62 | 1014.9 |
| 20260508113109 | 51 | 191 | 0.0 | 2.0 | 0.00 | 0.00 | 0.00 | 61 | 1014.8 |
| 20260508112605 | 51 | 149 | 1.0 | 2.0 | 0.00 | 0.00 | 0.00 | 61 | 1014.6 |
| 20260508112102 | 51 | 175 | 1.0 | 3.0 | 0.00 | 0.00 | 0.00 | 60 | 1014.7 |
| 20260508111559 | 51 | 169 | 2.0 | 3.0 | 0.00 | 0.00 | 0.00 | 60 | 1014.8 |
| 20260508111056 | 51 | 156 | 3.0 | 4.0 | 0.00 | 0.00 | 0.00 | 59 | 1014.9 |
| 20260508110554 | 51 | 160 | 1.0 | 2.0 | 0.00 | 0.00 | 0.00 | 59 | 1014.8 |
| 20260508110049 | 51 | 158 | 1.0 | 1.0 | 0.00 | 0.00 | 0.00 | 59 | 1014.6 |
| 20260508105544 | 51 | 177 | 1.0 | 2.0 | 0.00 | 0.00 | 0.00 | 58 | 1014.5 |
| 20260508105042 | 51 | 190 | 1.0 | 4.0 | 0.00 | 0.00 | 0.00 | 58 | 1014.5 |
| 20260508104540 | 51 | 164 | 1.0 | 2.0 | 0.00 | 0.00 | 0.00 | 59 | 1014.5 |
| 20260508104036 | 51 | 175 | 2.0 | 2.0 | 0.00 | 0.00 | 0.00 | 59 | 1014.5 |
| 20260508103533 | 51 | 155 | 0.0 | 1.0 | 0.00 | 0.00 | 0.00 | 60 | 1014.7 |
| 20260508103031 | 51 | 238 | 0.0 | 0.0 | 0.00 | 0.00 | 0.00 | 59 | 1014.7 |
| 20260508102528 | 51 | 197 | 1.0 | 2.0 | 0.00 | 0.00 | 0.00 | 58 | 1014.7 |
| 20260508102026 | 51 | 170 | 1.0 | 1.0 | 0.00 | 0.00 | 0.00 | 58 | 1014.6 |
| 20260508101523 | 51 | 167 | 0.0 | 3.0 | 0.00 | 0.00 | 0.00 | 58 | 1014.6 |
| 20260508101020 | 51 | 180 | 2.0 | 3.0 | 0.00 | 0.00 | 0.00 | 59 | 1014.5 |
| 20260508100518 | 51 | 170 | 1.0 | 3.0 | 0.00 | 0.00 | 0.00 | 59 | 1014.4 |
| 20260508100015 | 51 | 247 | 0.0 | 2.0 | 0.00 | 0.00 | 0.00 | 59 | 1014.5 |
| 20260508095512 | 51 | 172 | 1.0 | 2.0 | 0.00 | 0.00 | 0.00 | 59 | 1014.5 |
| 20260508095009 | 51 | 192 | 1.0 | 2.0 | 0.00 | 0.00 | 0.00 | 59 | 1014.6 |
| 20260508094506 | 51 | 183 | 1.0 | 2.0 | 0.00 | 0.00 | 0.00 | 60 | 1014.6 |
| 20260508094003 | 51 | 185 | 0.0 | 2.0 | 0.00 | 0.00 | 0.00 | 59 | 1014.6 |
| 20260508093500 | 51 | 178 | 0.0 | 1.0 | 0.00 | 0.00 | 0.00 | 60 | 1014.6 |
| 20260508092957 | 51 | 288 | 1.0 | 1.0 | 0.00 | 0.00 | 0.00 | 59 | 1014.7 |
| 20260508092455 | 50 | 212 | 2.0 | 3.0 | 0.00 | 0.00 | 0.00 | 60 | 1014.5 |
| 20260508091954 | 50 | 202 | 1.0 | 2.0 | 0.00 | 0.00 | 0.00 | 60 | 1014.6 |
| 20260508091450 | 50 | 171 | 0.0 | 2.0 | 0.00 | 0.00 | 0.00 | 60 | 1014.6 |
| 20260508090947 | 50 | 202 | 0.0 | 0.0 | 0.00 | 0.00 | 0.00 | 61 | 1014.6 |
| 20260508090445 | 50 | 174 | 1.0 | 2.0 | 0.00 | 0.00 | 0.00 | 61 | 1014.6 |
| 20260508085941 | 50 | 173 | 0.0 | 1.0 | 0.00 | 0.00 | 0.00 | 61 | 1014.8 |
| 20260508085438 | 50 | 177 | 1.0 | 1.0 | 0.00 | 0.00 | 0.00 | 62 | 1014.7 |
| 20260508084935 | 50 | 174 | 0.0 | 1.0 | 0.00 | 0.00 | 0.00 | 62 | 1014.6 |
| 20260508084431 | 50 | 190 | 0.0 | 2.0 | 0.00 | 0.00 | 0.00 | 62 | 1014.6 |
| 20260508083929 | 49 | 198 | 0.0 | 2.0 | 0.00 | 0.00 | 0.00 | 62 | 1014.3 |
| 20260508083426 | 49 | 207 | 2.0 | 2.0 | 0.00 | 0.00 | 0.00 | 63 | 1014.6 |
| 20260508082926 | 49 | 192 | 0.0 | 3.0 | 0.00 | 0.00 | 0.00 | 62 | 1014.5 |
| 20260508082424 | 49 | 158 | 0.0 | 2.0 | 0.00 | 0.00 | 0.00 | 63 | 1014.5 |
| 20260508081922 | 49 | 197 | 2.0 | 3.0 | 0.00 | 0.00 | 0.00 | 63 | 1014.4 |
| 20260508081418 | 49 | 190 | 2.0 | 2.0 | 0.00 | 0.00 | 0.00 | 63 | 1014.4 |
| 20260508080914 | 49 | 170 | 1.0 | 2.0 | 0.00 | 0.00 | 0.00 | 63 | 1014.5 |
| 20260508080413 | 49 | 185 | 0.0 | 1.0 | 0.00 | 0.00 | 0.00 | 63 | 1014.5 |
| 20260508075909 | 49 | 188 | 1.0 | 2.0 | 0.00 | 0.00 | 0.00 | 63 | 1014.4 |
| 20260508075406 | 49 | 189 | 0.0 | 1.0 | 0.00 | 0.00 | 0.00 | 64 | 1014.4 |
| 20260508074904 | 49 | 168 | 0.0 | 0.0 | 0.00 | 0.00 | 0.00 | 63 | 1014.6 |
| 20260508074401 | 49 | 186 | 2.0 | 3.0 | 0.00 | 0.00 | 0.00 | 62 | 1014.6 |
| 20260508073858 | 49 | 188 | 1.0 | 2.0 | 0.00 | 0.00 | 0.00 | 63 | 1014.4 |
| 20260508073356 | 49 | 200 | 0.0 | 2.0 | 0.00 | 0.00 | 0.00 | 62 | 1014.5 |
| 20260508072852 | 49 | 173 | 1.0 | 1.0 | 0.00 | 0.00 | 0.00 | 63 | 1014.5 |
| 20260508072348 | 49 | 156 | 1.0 | 2.0 | 0.00 | 0.00 | 0.00 | 63 | 1014.4 |
| 20260508071846 | 49 | 184 | 0.0 | 2.0 | 0.00 | 0.00 | 0.00 | 62 | 1014.5 |
| 20260508071344 | 49 | 179 | 0.0 | 1.0 | 0.00 | 0.00 | 0.00 | 62 | 1014.7 |
| 20260508070841 | 49 | 175 | 0.0 | 1.0 | 0.00 | 0.00 | 0.00 | 62 | 1014.4 |
| 20260508070339 | 49 | 174 | 0.0 | 1.0 | 0.00 | 0.00 | 0.00 | 62 | 1014.7 |
| 20260508065837 | 49 | 164 | 1.0 | 2.0 | 0.00 | 0.00 | 0.00 | 62 | 1014.6 |
| 20260508065335 | 50 | 180 | 1.0 | 1.0 | 0.00 | 0.00 | 0.00 | 60 | 1014.6 |
| 20260508064833 | 50 | 187 | 1.0 | 2.0 | 0.00 | 0.00 | 0.00 | 61 | 1014.7 |
| 20260508064330 | 50 | 179 | 0.0 | 2.0 | 0.00 | 0.00 | 0.00 | 59 | 1014.7 |
| 20260508063827 | 50 | 164 | 2.0 | 3.0 | 0.00 | 0.00 | 0.00 | 60 | 1014.8 |
| 20260508063325 | 50 | 169 | 2.0 | 2.0 | 0.00 | 0.00 | 0.00 | 60 | 1014.9 |
| 20260508062822 | 50 | 179 | 2.0 | 2.0 | 0.00 | 0.00 | 0.00 | 60 | 1015.1 |
| 20260508062320 | 50 | 162 | 1.0 | 1.0 | 0.00 | 0.00 | 0.00 | 59 | 1015.1 |
| 20260508061816 | 50 | 187 | 1.0 | 2.0 | 0.00 | 0.00 | 0.00 | 59 | 1015.1 |
| 20260508061314 | 50 | 199 | 1.0 | 2.0 | 0.00 | 0.00 | 0.00 | 59 | 1015.1 |
| 20260508060810 | 50 | 183 | 0.0 | 3.0 | 0.00 | 0.00 | 0.00 | 58 | 1015.1 |
| 20260508060308 | 50 | 182 | 1.0 | 1.0 | 0.00 | 0.00 | 0.00 | 57 | 1015.1 |
| 20260508055808 | 50 | 176 | 1.0 | 2.0 | 0.00 | 0.00 | 0.00 | 58 | 1015.2 |
| 20260508055307 | 50 | 192 | 1.0 | 2.0 | 0.00 | 0.00 | 0.00 | 57 | 1015.0 |
| 20260508054803 | 51 | 161 | 1.0 | 3.0 | 0.00 | 0.00 | 0.00 | 57 | 1015.1 |
| 20260508054300 | 51 | 193 | 2.0 | 6.0 | 0.00 | 0.00 | 0.00 | 56 | 1015.1 |
| 20260508053757 | 50 | 197 | 1.0 | 3.0 | 0.00 | 0.00 | 0.00 | 56 | 1015.1 |
| 20260508053254 | 50 | 164 | 1.0 | 2.0 | 0.00 | 0.00 | 0.00 | 57 | 1015.1 |
| 20260508052752 | 51 | 193 | 1.0 | 2.0 | 0.00 | 0.00 | 0.00 | 56 | 1015.2 |
| 20260508052249 | 51 | 151 | 2.0 | 3.0 | 0.00 | 0.00 | 0.00 | 56 | 1015.2 |
| 20260508051745 | 51 | 181 | 2.0 | 2.0 | 0.00 | 0.00 | 0.00 | 55 | 1015.1 |
| 20260508051240 | 51 | 172 | 0.0 | 1.0 | 0.00 | 0.00 | 0.00 | 56 | 1015.1 |
| 20260508050737 | 51 | 157 | 2.0 | 4.0 | 0.00 | 0.00 | 0.00 | 55 | 1015.0 |
| 20260508050234 | 51 | 182 | 1.0 | 2.0 | 0.00 | 0.00 | 0.00 | 54 | 1015.1 |
| 20260508045729 | 51 | 190 | 0.0 | 2.0 | 0.00 | 0.00 | 0.00 | 55 | 1014.8 |
| 20260508045228 | 51 | 185 | 1.0 | 2.0 | 0.00 | 0.00 | 0.00 | 54 | 1014.9 |
| 20260508044725 | 51 | 154 | 1.0 | 3.0 | 0.00 | 0.00 | 0.00 | 54 | 1015.0 |
| 20260508044222 | 51 | 169 | 1.0 | 1.0 | 0.00 | 0.00 | 0.00 | 55 | 1015.0 |
| 20260508043717 | 51 | 156 | 1.0 | 1.0 | 0.00 | 0.00 | 0.00 | 55 | 1015.2 |
| 20260508043216 | 50 | 167 | 0.0 | 1.0 | 0.00 | 0.00 | 0.00 | 56 | 1015.0 |
| 20260508042712 | 50 | 167 | 1.0 | 1.0 | 0.00 | 0.00 | 0.00 | 57 | 1014.9 |
| 20260508042209 | 50 | 149 | 0.0 | 0.0 | 0.00 | 0.00 | 0.00 | 58 | 1015.0 |
| 20260508041705 | 50 | 148 | 1.0 | 2.0 | 0.00 | 0.00 | 0.00 | 59 | 1015.1 |
| 20260508041203 | 50 | 161 | 1.0 | 1.0 | 0.00 | 0.00 | 0.00 | 58 | 1014.8 |
| 20260508040659 | 50 | 161 | 1.0 | 1.0 | 0.00 | 0.00 | 0.00 | 57 | 1015.0 |
| 20260508040157 | 50 | 163 | 0.0 | 1.0 | 0.00 | 0.00 | 0.00 | 58 | 1014.9 |
| 20260508035654 | 51 | 162 | 0.0 | 2.0 | 0.00 | 0.00 | 0.00 | 56 | 1015.0 |
| 20260508035151 | 51 | 154 | 1.0 | 2.0 | 0.00 | 0.00 | 0.00 | 56 | 1014.7 |
| 20260508034647 | 51 | 159 | 1.0 | 2.0 | 0.00 | 0.00 | 0.00 | 56 | 1014.7 |
| 20260508034144 | 51 | 164 | 1.0 | 2.0 | 0.00 | 0.00 | 0.00 | 56 | 1014.6 |
| 20260508033642 | 51 | 174 | 1.0 | 2.0 | 0.00 | 0.00 | 0.00 | 56 | 1014.9 |
| 20260508033141 | 51 | 178 | 2.0 | 2.0 | 0.00 | 0.00 | 0.00 | 56 | 1014.9 |
| 20260508032636 | 51 | 173 | 1.0 | 2.0 | 0.00 | 0.00 | 0.00 | 56 | 1015.1 |
| 20260508032134 | 51 | 173 | 1.0 | 1.0 | 0.00 | 0.00 | 0.00 | 58 | 1015.2 |
| 20260508031631 | 51 | 167 | 1.0 | 2.0 | 0.00 | 0.00 | 0.00 | 57 | 1014.8 |
| 20260508031127 | 50 | 172 | 1.0 | 2.0 | 0.00 | 0.00 | 0.00 | 58 | 1015.0 |
| 20260508030623 | 50 | 164 | 0.0 | 1.0 | 0.00 | 0.00 | 0.00 | 58 | 1014.9 |
| 20260508030121 | 50 | 165 | 1.0 | 2.0 | 0.00 | 0.00 | 0.00 | 59 | 1014.8 |
| 20260508025617 | 50 | 164 | 0.0 | 0.0 | 0.00 | 0.00 | 0.00 | 59 | 1014.8 |
| 20260508025115 | 50 | 164 | 1.0 | 2.0 | 0.00 | 0.00 | 0.00 | 60 | 1014.8 |
| 20260508024610 | 50 | 163 | 1.0 | 2.0 | 0.00 | 0.00 | 0.00 | 58 | 1015.0 |
| 20260508024108 | 51 | 163 | 1.0 | 2.0 | 0.00 | 0.00 | 0.00 | 57 | 1014.9 |
| 20260508023604 | 51 | 179 | 2.0 | 2.0 | 0.00 | 0.00 | 0.00 | 58 | 1015.0 |
| 20260508023101 | 51 | 168 | 0.0 | 0.0 | 0.00 | 0.00 | 0.00 | 59 | 1014.9 |
| 20260508022557 | 51 | 161 | 0.0 | 0.0 | 0.00 | 0.00 | 0.00 | 57 | 1014.9 |
| 20260508022054 | 51 | 158 | 0.0 | 1.0 | 0.00 | 0.00 | 0.00 | 57 | 1014.8 |
| 20260508021550 | 50 | 163 | 1.0 | 2.0 | 0.00 | 0.00 | 0.00 | 59 | 1014.8 |
| 20260508021046 | 50 | 179 | 0.0 | 0.0 | 0.00 | 0.00 | 0.00 | 58 | 1014.9 |
| 20260508020544 | 51 | 180 | 0.0 | 0.0 | 0.00 | 0.00 | 0.00 | 58 | 1014.9 |
| 20260508020041 | 50 | 180 | 0.0 | 0.0 | 0.00 | 0.00 | 0.00 | 59 | 1014.9 |
| 20260508015539 | 50 | 180 | 0.0 | 0.0 | 0.00 | 0.00 | 0.00 | 63 | 1014.6 |
| 20260508015036 | 50 | 180 | 0.0 | 0.0 | 0.00 | 0.00 | 0.00 | 61 | 1014.8 |
| 20260508014532 | 49 | 180 | 0.0 | 0.0 | 0.00 | 0.00 | 0.00 | 63 | 1014.7 |
| 20260508014028 | 49 | 180 | 0.0 | 0.0 | 0.00 | 0.00 | 0.00 | 64 | 1014.7 |
| 20260508013524 | 49 | 180 | 0.0 | 0.0 | 0.00 | 0.00 | 0.00 | 66 | 1014.8 |
| 20260508013021 | 49 | 180 | 0.0 | 0.0 | 0.00 | 0.00 | 0.00 | 64 | 1014.7 |
| 20260508012519 | 50 | 180 | 0.0 | 0.0 | 0.00 | 0.00 | 0.00 | 65 | 1014.8 |
| 20260508012016 | 50 | 203 | 0.0 | 0.0 | 0.00 | 0.00 | 0.00 | 64 | 1014.7 |
| 20260508011514 | 50 | 203 | 0.0 | 0.0 | 0.00 | 0.00 | 0.00 | 62 | 1014.6 |
| 20260508011011 | 50 | 203 | 0.0 | 0.0 | 0.00 | 0.00 | 0.00 | 61 | 1014.6 |
| 20260508010508 | 51 | 203 | 0.0 | 0.0 | 0.00 | 0.00 | 0.00 | 59 | 1014.6 |
| 20260508010006 | 51 | 203 | 0.0 | 0.0 | 0.00 | 0.00 | 0.00 | 59 | 1014.5 |
| 20260508005502 | 52 | 203 | 0.0 | 0.0 | 0.00 | 0.00 | 0.00 | 57 | 1014.7 |
| 20260508004959 | 52 | 203 | 0.0 | 0.0 | 0.00 | 0.00 | 0.00 | 58 | 1014.8 |
| 20260508004454 | 52 | 204 | 0.0 | 0.0 | 0.00 | 0.00 | 0.00 | 57 | 1014.6 |
| 20260508003952 | 52 | 203 | 0.0 | 0.0 | 0.00 | 0.00 | 0.00 | 55 | 1014.5 |
| 20260508003448 | 53 | 203 | 0.0 | 0.0 | 0.00 | 0.00 | 0.00 | 54 | 1014.7 |
| 20260508002945 | 53 | 203 | 0.0 | 0.0 | 0.00 | 0.00 | 0.00 | 54 | 1014.4 |
| 20260508002442 | 54 | 203 | 0.0 | 0.0 | 0.00 | 0.00 | 0.00 | 53 | 1014.4 |
| 20260508001938 | 54 | 203 | 0.0 | 0.0 | 0.00 | 0.00 | 0.00 | 53 | 1014.4 |
| 20260508001434 | 55 | 204 | 0.0 | 0.0 | 0.00 | 0.00 | 0.00 | 50 | 1014.4 |
| 20260508000931 | 56 | 204 | 0.0 | 0.0 | 0.00 | 0.00 | 0.00 | 49 | 1014.5 |
| 20260508000427 | 57 | 204 | 0.0 | 0.0 | 0.00 | 0.00 | 0.00 | 44 | 1014.5 |
| 20260507235924 | 58 | 288 | 0.0 | 0.0 | 0.00 | 0.00 | 0.00 | 41 | 1014.6 |
| 20260507235421 | 58 | 289 | 0.0 | 0.0 | 0.00 | 0.00 | 0.00 | 41 | 1014.4 |
| 20260507234918 | 58 | 359 | 0.0 | 0.0 | 0.00 | 0.00 | 0.00 | 41 | 1014.5 |
| 20260507234415 | 58 | 349 | 0.0 | 0.0 | 0.00 | 0.00 | 0.00 | 42 | 1014.4 |
| 20260507233911 | 59 | 322 | 0.0 | 1.0 | 0.00 | 0.00 | 0.00 | 39 | 1014.3 |
| 20260507233408 | 59 | 260 | 0.0 | 1.0 | 0.00 | 0.00 | 0.00 | 38 | 1014.3 |
| 20260507232907 | 59 | 325 | 0.0 | 1.0 | 0.00 | 0.00 | 0.00 | 41 | 1014.3 |
| 20260507232403 | 59 | 309 | 1.0 | 2.0 | 0.00 | 0.00 | 0.00 | 38 | 1014.2 |
| 20260507231900 | 59 | 2 | 2.0 | 3.0 | 0.00 | 0.00 | 0.00 | 40 | 1014.4 |
| 20260507231357 | 59 | 191 | 0.0 | 1.0 | 0.00 | 0.00 | 0.00 | 40 | 1014.3 |
| 20260507230853 | 59 | 285 | 0.0 | 1.0 | 0.00 | 0.00 | 0.00 | 40 | 1014.3 |
| 20260507230351 | 59 | 296 | 0.0 | 2.0 | 0.00 | 0.00 | 0.00 | 42 | 1014.4 |
| 20260507225850 | 59 | 13 | 0.0 | 2.0 | 0.00 | 0.00 | 0.00 | 39 | 1014.2 |
| 20260507225347 | 59 | 349 | 1.0 | 2.0 | 0.00 | 0.00 | 0.00 | 41 | 1014.3 |
| 20260507224843 | 60 | 20 | 1.0 | 2.0 | 0.00 | 0.00 | 0.00 | 40 | 1014.4 |
| 20260507224340 | 60 | 338 | 2.0 | 2.0 | 0.00 | 0.00 | 0.00 | 39 | 1014.2 |
| 20260507223836 | 59 | 299 | 1.0 | 2.0 | 0.00 | 0.00 | 0.00 | 38 | 1014.2 |
| 20260507223332 | 59 | 11 | 2.0 | 3.0 | 0.00 | 0.00 | 0.00 | 37 | 1014.3 |
| 20260507222829 | 59 | 343 | 2.0 | 6.0 | 0.00 | 0.00 | 0.00 | 36 | 1014.5 |
| 20260507222326 | 60 | 2 | 2.0 | 3.0 | 0.00 | 0.00 | 0.00 | 37 | 1014.3 |
| 20260507221823 | 60 | 341 | 1.0 | 4.0 | 0.00 | 0.00 | 0.00 | 39 | 1014.4 |
| 20260507221319 | 61 | 11 | 3.0 | 4.0 | 0.00 | 0.00 | 0.00 | 38 | 1014.3 |
| 20260507220815 | 60 | 151 | 0.0 | 3.0 | 0.00 | 0.00 | 0.00 | 40 | 1014.2 |
| 20260507220314 | 60 | 303 | 2.0 | 3.0 | 0.00 | 0.00 | 0.00 | 38 | 1014.4 |
| 20260507215809 | 61 | 176 | 2.0 | 2.0 | 0.00 | 0.00 | 0.00 | 37 | 1014.5 |
| 20260507215307 | 61 | 317 | 2.0 | 4.0 | 0.00 | 0.00 | 0.00 | 38 | 1014.5 |
| 20260507214804 | 61 | 135 | 1.0 | 3.0 | 0.00 | 0.00 | 0.00 | 39 | 1014.7 |
| 20260507214301 | 60 | 22 | 1.0 | 2.0 | 0.00 | 0.00 | 0.00 | 37 | 1014.6 |
| 20260507213756 | 60 | 287 | 2.0 | 3.0 | 0.00 | 0.00 | 0.00 | 37 | 1014.5 |
| 20260507213253 | 60 | 35 | 1.0 | 3.0 | 0.00 | 0.00 | 0.00 | 40 | 1014.6 |
| 20260507212750 | 60 | 32 | 0.0 | 2.0 | 0.00 | 0.00 | 0.00 | 38 | 1014.6 |
| 20260507212246 | 59 | 358 | 2.0 | 7.0 | 0.00 | 0.00 | 0.00 | 41 | 1014.8 |
| 20260507211743 | 60 | 331 | 3.0 | 7.0 | 0.00 | 0.00 | 0.00 | 38 | 1014.7 |
| 20260507211239 | 61 | 31 | 2.0 | 2.0 | 0.00 | 0.00 | 0.00 | 39 | 1014.6 |
| 20260507210736 | 60 | 1 | 4.0 | 4.0 | 0.00 | 0.00 | 0.00 | 37 | 1014.7 |
| 20260507210233 | 62 | 337 | 3.0 | 4.0 | 0.00 | 0.00 | 0.00 | 37 | 1014.4 |
| 20260507205730 | 62 | 12 | 4.0 | 4.0 | 0.00 | 0.00 | 0.00 | 36 | 1014.6 |
| 20260507205227 | 62 | 239 | 1.0 | 2.0 | 0.00 | 0.00 | 0.00 | 38 | 1014.7 |
| 20260507204723 | 61 | 305 | 2.0 | 4.0 | 0.00 | 0.00 | 0.00 | 39 | 1014.5 |
| 20260507204221 | 62 | 41 | 2.0 | 3.0 | 0.00 | 0.00 | 0.00 | 36 | 1014.5 |
| 20260507203718 | 61 | 277 | 1.0 | 4.0 | 0.00 | 0.00 | 0.00 | 38 | 1014.6 |
| 20260507203216 | 61 | 334 | 3.0 | 4.0 | 0.00 | 0.00 | 0.00 | 35 | 1014.4 |
| 20260507202711 | 60 | 49 | 2.0 | 6.0 | 0.00 | 0.00 | 0.00 | 37 | 1014.5 |
| 20260507202208 | 60 | 359 | 1.0 | 3.0 | 0.00 | 0.00 | 0.00 | 36 | 1014.6 |
| 20260507201702 | 60 | 128 | 2.0 | 3.0 | 0.00 | 0.00 | 0.00 | 38 | 1014.5 |
| 20260507201200 | 60 | 306 | 3.0 | 7.0 | 0.00 | 0.00 | 0.00 | 40 | 1014.5 |
| 20260507200656 | 60 | 7 | 2.0 | 7.0 | 0.00 | 0.00 | 0.00 | 36 | 1014.4 |
| 20260507200152 | 60 | 17 | 2.0 | 6.0 | 0.00 | 0.00 | 0.00 | 37 | 1014.7 |
| 20260507195649 | 60 | 308 | 3.0 | 8.0 | 0.00 | 0.00 | 0.00 | 39 | 1014.7 |
| 20260507195146 | 60 | 300 | 3.0 | 4.0 | 0.00 | 0.00 | 0.00 | 38 | 1014.6 |
| 20260507194643 | 60 | 337 | 3.0 | 6.0 | 0.00 | 0.00 | 0.00 | 36 | 1014.7 |
| 20260507194138 | 59 | 359 | 2.0 | 7.0 | 0.00 | 0.00 | 0.00 | 39 | 1014.8 |
| 20260507193635 | 60 | 22 | 1.0 | 8.0 | 0.00 | 0.00 | 0.00 | 40 | 1014.8 |
| 20260507193133 | 60 | 0 | 3.0 | 6.0 | 0.00 | 0.00 | 0.00 | 39 | 1014.6 |
| 20260507192629 | 62 | 320 | 1.0 | 7.0 | 0.00 | 0.00 | 0.00 | 39 | 1014.7 |
| 20260507192126 | 61 | 340 | 0.0 | 2.0 | 0.00 | 0.00 | 0.00 | 38 | 1014.8 |
| 20260507191621 | 61 | 301 | 2.0 | 3.0 | 0.00 | 0.00 | 0.00 | 39 | 1014.8 |
| 20260507191118 | 60 | 8 | 2.0 | 3.0 | 0.00 | 0.00 | 0.00 | 42 | 1014.7 |
| 20260507190615 | 60 | 157 | 2.0 | 3.0 | 0.00 | 0.00 | 0.00 | 39 | 1014.7 |
| 20260507190114 | 60 | 296 | 3.0 | 11.0 | 0.00 | 0.00 | 0.00 | 41 | 1014.9 |
| 20260507185613 | 60 | 340 | 3.0 | 7.0 | 0.00 | 0.00 | 0.00 | 38 | 1015.1 |
| 20260507185108 | 59 | 315 | 3.0 | 6.0 | 0.00 | 0.00 | 0.00 | 44 | 1014.9 |
| 20260507184607 | 59 | 292 | 2.0 | 6.0 | 0.00 | 0.00 | 0.00 | 42 | 1015.1 |
| 20260507184104 | 58 | 291 | 3.0 | 6.0 | 0.00 | 0.00 | 0.00 | 45 | 1015.0 |
| 20260507183600 | 58 | 296 | 1.0 | 4.0 | 0.00 | 0.00 | 0.00 | 44 | 1014.9 |
| 20260507183057 | 58 | 306 | 4.0 | 7.0 | 0.00 | 0.00 | 0.00 | 40 | 1015.0 |
| 20260507182554 | 58 | 14 | 3.0 | 6.0 | 0.00 | 0.00 | 0.00 | 40 | 1015.3 |
| 20260507182049 | 59 | 347 | 4.0 | 6.0 | 0.00 | 0.00 | 0.00 | 42 | 1015.2 |
| 20260507181547 | 59 | 54 | 2.0 | 7.0 | 0.00 | 0.00 | 0.00 | 40 | 1015.1 |
| 20260507181043 | 57 | 220 | 1.0 | 2.0 | 0.00 | 0.00 | 0.00 | 43 | 1015.2 |
| 20260507180539 | 58 | 311 | 4.0 | 6.0 | 0.00 | 0.00 | 0.00 | 41 | 1015.2 |
| 20260507180036 | 59 | 304 | 4.0 | 6.0 | 0.00 | 0.00 | 0.00 | 44 | 1015.2 |
| 20260507175532 | 58 | 6 | 2.0 | 3.0 | 0.00 | 0.00 | 0.00 | 43 | 1015.3 |
| 20260507175030 | 59 | 20 | 3.0 | 7.0 | 0.00 | 0.00 | 0.00 | 41 | 1015.4 |
| 20260507174527 | 58 | 326 | 3.0 | 3.0 | 0.00 | 0.00 | 0.00 | 44 | 1015.4 |
| 20260507174025 | 59 | 243 | 2.0 | 6.0 | 0.00 | 0.00 | 0.00 | 38 | 1015.3 |
| 20260507173521 | 59 | 299 | 2.0 | 3.0 | 0.00 | 0.00 | 0.00 | 45 | 1015.5 |
| 20260507173019 | 57 | 317 | 2.0 | 3.0 | 0.00 | 0.00 | 0.00 | 45 | 1015.7 |
| 20260507172514 | 56 | 280 | 1.0 | 3.0 | 0.00 | 0.00 | 0.00 | 44 | 1015.6 |
| 20260507172012 | 58 | 290 | 4.0 | 6.0 | 0.00 | 0.00 | 0.00 | 41 | 1016.0 |
| 20260507171507 | 58 | 213 | 0.0 | 4.0 | 0.00 | 0.00 | 0.00 | 44 | 1016.0 |
| 20260507171005 | 57 | 209 | 2.0 | 6.0 | 0.00 | 0.00 | 0.00 | 39 | 1016.0 |
| 20260507170501 | 57 | 302 | 4.0 | 6.0 | 0.00 | 0.00 | 0.00 | 43 | 1015.8 |
| 20260507165957 | 57 | 306 | 2.0 | 3.0 | 0.00 | 0.00 | 0.00 | 42 | 1015.8 |
| 20260507165454 | 56 | 329 | 2.0 | 4.0 | 0.00 | 0.00 | 0.00 | 46 | 1016.1 |
| 20260507164950 | 55 | 301 | 3.0 | 4.0 | 0.00 | 0.00 | 0.00 | 46 | 1016.1 |
| 20260507164447 | 56 | 270 | 3.0 | 6.0 | 0.00 | 0.00 | 0.00 | 44 | 1016.1 |
| 20260507163943 | 55 | 45 | 1.0 | 2.0 | 0.00 | 0.00 | 0.00 | 48 | 1016.4 |
| 20260507163441 | 55 | 304 | 4.0 | 6.0 | 0.00 | 0.00 | 0.00 | 44 | 1016.3 |
| 20260507162938 | 55 | 32 | 1.0 | 3.0 | 0.00 | 0.00 | 0.00 | 48 | 1016.4 |
| 20260507162433 | 55 | 315 | 2.0 | 3.0 | 0.00 | 0.00 | 0.00 | 46 | 1016.3 |
| 20260507161931 | 55 | 32 | 3.0 | 7.0 | 0.00 | 0.00 | 0.00 | 45 | 1016.4 |
| 20260507161426 | 55 | 296 | 4.0 | 6.0 | 0.00 | 0.00 | 0.00 | 46 | 1016.3 |
| 20260507160924 | 55 | 23 | 1.0 | 4.0 | 0.00 | 0.00 | 0.00 | 44 | 1016.2 |
| 20260507160420 | 54 | 344 | 5.0 | 7.0 | 0.00 | 0.00 | 0.00 | 46 | 1016.4 |
| 20260507155915 | 54 | 5 | 2.0 | 4.0 | 0.00 | 0.00 | 0.00 | 45 | 1016.3 |
| 20260507155411 | 54 | 37 | 4.0 | 10.0 | 0.00 | 0.00 | 0.00 | 46 | 1016.3 |
| 20260507154909 | 54 | 327 | 1.0 | 7.0 | 0.00 | 0.00 | 0.00 | 45 | 1016.5 |
| 20260507154406 | 53 | 34 | 4.0 | 6.0 | 0.00 | 0.00 | 0.00 | 46 | 1016.3 |
| 20260507153903 | 53 | 311 | 3.0 | 7.0 | 0.00 | 0.00 | 0.00 | 45 | 1016.6 |
| 20260507153359 | 53 | 357 | 2.0 | 3.0 | 0.00 | 0.00 | 0.00 | 48 | 1016.3 |
| 20260507152855 | 53 | 24 | 5.0 | 7.0 | 0.00 | 0.00 | 0.00 | 46 | 1016.1 |
| 20260507152352 | 54 | 351 | 1.0 | 4.0 | 0.00 | 0.00 | 0.00 | 44 | 1016.4 |
| 20260507151848 | 53 | 17 | 0.0 | 4.0 | 0.00 | 0.00 | 0.00 | 49 | 1016.2 |
| 20260507151344 | 53 | 319 | 3.0 | 3.0 | 0.00 | 0.00 | 0.00 | 48 | 1016.3 |
| 20260507150842 | 52 | 350 | 3.0 | 6.0 | 0.00 | 0.00 | 0.00 | 45 | 1016.1 |
| 20260507150338 | 52 | 345 | 4.0 | 6.0 | 0.00 | 0.00 | 0.00 | 47 | 1016.1 |
| 20260507145834 | 52 | 12 | 3.0 | 10.0 | 0.00 | 0.00 | 0.00 | 47 | 1016.4 |
| 20260507145331 | 52 | 215 | 0.0 | 6.0 | 0.00 | 0.00 | 0.00 | 49 | 1016.1 |
| 20260507144828 | 52 | 332 | 3.0 | 4.0 | 0.00 | 0.00 | 0.00 | 47 | 1016.3 |
| 20260507144325 | 52 | 304 | 2.0 | 4.0 | 0.00 | 0.00 | 0.00 | 47 | 1016.2 |
| 20260507143822 | 52 | 302 | 2.0 | 3.0 | 0.00 | 0.00 | 0.00 | 48 | 1016.1 |
| 20260507143319 | 52 | 198 | 0.0 | 3.0 | 0.00 | 0.00 | 0.00 | 50 | 1016.2 |
| 20260507142815 | 51 | 309 | 2.0 | 3.0 | 0.00 | 0.00 | 0.00 | 49 | 1016.2 |
| 20260507142312 | 51 | 0 | 2.0 | 3.0 | 0.00 | 0.00 | 0.00 | 46 | 1016.3 |
| 20260507141808 | 51 | 127 | 2.0 | 3.0 | 0.00 | 0.00 | 0.00 | 51 | 1016.2 |
| 20260507141305 | 51 | 319 | 0.0 | 2.0 | 0.00 | 0.00 | 0.00 | 54 | 1016.2 |
| 20260507140801 | 51 | 311 | 1.0 | 4.0 | 0.00 | 0.00 | 0.00 | 56 | 1016.3 |
| 20260507140259 | 50 | 9 | 0.0 | 2.0 | 0.00 | 0.00 | 0.00 | 53 | 1016.3 |
| 20260507135756 | 50 | 349 | 3.0 | 7.0 | 0.00 | 0.00 | 0.00 | 51 | 1016.4 |
| 20260507135253 | 50 | 301 | 1.0 | 6.0 | 0.00 | 0.00 | 0.00 | 53 | 1016.4 |
| 20260507134749 | 50 | 340 | 2.0 | 3.0 | 0.00 | 0.00 | 0.00 | 51 | 1016.2 |
| 20260507134246 | 50 | 307 | 1.0 | 3.0 | 0.00 | 0.00 | 0.00 | 55 | 1016.1 |
| 20260507133742 | 50 | 311 | 3.0 | 6.0 | 0.00 | 0.00 | 0.00 | 52 | 1016.3 |
| 20260507133239 | 49 | 354 | 1.0 | 2.0 | 0.00 | 0.00 | 0.00 | 64 | 1016.1 |
| 20260507132736 | 49 | 300 | 1.0 | 2.0 | 0.00 | 0.00 | 0.00 | 63 | 1016.2 |
| 20260507132233 | 49 | 317 | 1.0 | 2.0 | 0.00 | 0.00 | 0.00 | 65 | 1016.3 |
| 20260507131730 | 48 | 346 | 1.0 | 3.0 | 0.00 | 0.00 | 0.00 | 66 | 1016.4 |
| 20260507131227 | 48 | 310 | 1.0 | 3.0 | 0.00 | 0.00 | 0.00 | 66 | 1016.3 |
| 20260507130723 | 48 | 23 | 2.0 | 2.0 | 0.00 | 0.00 | 0.00 | 68 | 1016.3 |
| 20260507130221 | 48 | 336 | 1.0 | 3.0 | 0.00 | 0.00 | 0.00 | 71 | 1016.3 |
| 20260507125720 | 47 | 45 | 1.0 | 2.0 | 0.00 | 0.00 | 0.00 | 71 | 1016.1 |
| 20260507125217 | 46 | 41 | 1.0 | 2.0 | 0.00 | 0.00 | 0.00 | 71 | 1016.2 |
| 20260507124713 | 46 | 328 | 1.0 | 2.0 | 0.00 | 0.00 | 0.00 | 71 | 1016.3 |
| 20260507124211 | 46 | 327 | 2.0 | 3.0 | 0.00 | 0.00 | 0.00 | 72 | 1016.4 |
| 20260507123709 | 45 | 19 | 0.0 | 0.0 | 0.00 | 0.00 | 0.00 | 75 | 1016.4 |
| 20260507123206 | 45 | 26 | 0.0 | 0.0 | 0.00 | 0.00 | 0.00 | 74 | 1016.5 |
| 20260507122701 | 45 | 22 | 0.0 | 1.0 | 0.00 | 0.00 | 0.00 | 77 | 1016.4 |
| 20260507122157 | 44 | 24 | 0.0 | 0.0 | 0.00 | 0.00 | 0.00 | 78 | 1016.4 |
| 20260507121653 | 44 | 316 | 0.0 | 1.0 | 0.00 | 0.00 | 0.00 | 79 | 1016.5 |